Weather History for KEYF - October, 2013

Change the Weather History Date:

Wednesday, October 16, 2013

  Actual Average (KILM) Record (KILM)
Temperature  
Mean Temperature 66 °F 65 °F  
Max Temperature 72 °F 76 °F 87 °F (1975)
Min Temperature 61 °F 54 °F 32 °F (1876)
Degree Days  
Heating Degree Days 0 3  
Month to date heating degree days 28  
Since 1 July heating degree days 33  
Cooling Degree Days 2 3  
Month to date cooling degree days 67  
Year to date cooling degree days 1984  
Growing Degree Days 16 (Base 50)    
Moisture  
Dew Point 62 °F    
Average Humidity 84    
Maximum Humidity 96    
Minimum Humidity 67    
Precipitation  
Precipitation 0.00 in 0.12 in 2.73 in (1936)
Month to date precipitation 2.37  
Year to date precipitation 49.18  
Sea Level Pressure  
Sea Level Pressure 30.01 in    
Wind  
Wind Speed 1 mph (NW)    
Max Wind Speed 7 mph    
Max Gust Speed -    
Visibility 10 miles    
Events      
T = Trace of Precipitation, MM = Missing Value Source: NWS Daily Summary

Daily Weather History Graph

Daily Weather History Graph

Search for Another Location

Airport or City:

Trip Planner

Search our weather history database for the weather conditions in past years. The results will help you decide how hot, cold, wet, or windy it might be!

Date:

Astronomy

Oct. 16, 2013 Rise Set
Actual Time 7:20 AM EDT 6:38 PM EDT
Civil Twilight 6:55 AM EDT 7:03 PM EDT
Nautical Twilight 6:26 AM EDT 7:32 PM EDT
Astronomical Twilight 5:57 AM EDT 8:01 PM EDT
Moon 5:12 PM EDT (10/16) 4:52 AM EDT (10/16)
Length of Visible Light 12h 08m
Length of Day
11h 17m
Waxing Gibbous, 94% of the Moon is Illuminated
Oct 16
Waxing Gibbous
Oct 18
Full
Oct 26
Last Quarter
Nov 3
New
Nov 10
First Quarter

Hourly Weather History & Observations

Time (EDT) Temp. Dew Point Humidity Pressure Visibility Wind Dir Wind Speed Gust Speed Precip Events Conditions
12:15 AM 65.7 °F 63.5 °F 93% 30.03 in 10.0 mi Calm Calm - N/A   Overcast
12:35 AM 65.7 °F 63.5 °F 93% 30.04 in 10.0 mi Calm Calm - N/A   Overcast
12:55 AM 65.5 °F 63.3 °F 93% 30.03 in 10.0 mi Calm Calm - N/A   Overcast
1:15 AM 65.7 °F 63.3 °F 92% 30.03 in 10.0 mi Calm Calm - N/A   Overcast
1:35 AM 65.5 °F 63.3 °F 93% 30.04 in 10.0 mi Calm Calm - N/A   Overcast
1:55 AM 65.3 °F 63.1 °F 93% 30.04 in 10.0 mi Calm Calm - N/A   Overcast
2:15 AM 65.3 °F 63.1 °F 93% 30.04 in 10.0 mi Calm Calm - N/A   Overcast
2:35 AM 64.9 °F 62.8 °F 93% 30.03 in 10.0 mi Calm Calm - N/A   Overcast
2:55 AM 64.8 °F 62.8 °F 93% 30.02 in 10.0 mi Calm Calm - N/A   Overcast
3:15 AM 64.8 °F 62.8 °F 93% 30.02 in 10.0 mi Calm Calm - N/A   Overcast
3:35 AM 64.8 °F 62.8 °F 93% 30.01 in 10.0 mi Calm Calm - N/A   Overcast
3:55 AM 64.8 °F 62.8 °F 93% 30.01 in 10.0 mi Calm Calm - N/A   Overcast
4:15 AM 64.6 °F 62.8 °F 94% 30.00 in 10.0 mi Calm Calm - N/A   Overcast
4:35 AM 64.6 °F 63.0 °F 94% 30.00 in 10.0 mi Calm Calm - N/A   Overcast
4:55 AM 64.6 °F 63.0 °F 94% 30.00 in 10.0 mi Calm Calm - N/A   Overcast
5:15 AM 64.4 °F 62.6 °F 94% 30.01 in 10.0 mi Calm Calm - N/A   Overcast
5:35 AM 64.4 °F 62.6 °F 94% 30.01 in 10.0 mi Calm Calm - N/A   Overcast
5:55 AM 64.4 °F 62.8 °F 94% 30.01 in 10.0 mi Calm Calm - N/A   Overcast
6:15 AM 64.4 °F 62.8 °F 94% 30.01 in 10.0 mi Calm Calm - N/A   Overcast
6:35 AM 64.4 °F 62.8 °F 94% 30.01 in 10.0 mi Calm Calm - N/A   Overcast
6:55 AM 64.4 °F 62.8 °F 94% 30.02 in 10.0 mi Calm Calm - N/A   Overcast
7:15 AM 64.4 °F 62.8 °F 94% 30.03 in 10.0 mi Calm Calm - N/A   Overcast
7:35 AM 64.4 °F 63.0 °F 95% 30.03 in 10.0 mi Calm Calm - N/A   Overcast
7:55 AM 64.4 °F 63.0 °F 95% 30.04 in 10.0 mi Calm Calm - N/A   Overcast
8:15 AM 64.4 °F 63.0 °F 95% 30.04 in 10.0 mi Calm Calm - N/A   Overcast
8:35 AM 64.6 °F 63.1 °F 95% 30.04 in 10.0 mi Calm Calm - N/A   Overcast
8:55 AM 65.5 °F 63.7 °F 94% 30.04 in 10.0 mi Calm Calm - N/A   Overcast
9:15 AM 66.2 °F 63.3 °F 90% 30.04 in 7.0 mi Calm Calm - N/A   Overcast
9:35 AM 66.7 °F 63.1 °F 88% 30.04 in 10.0 mi Calm Calm - N/A   Overcast
9:55 AM 68.0 °F 62.8 °F 83% 30.04 in 10.0 mi Calm Calm - N/A   Overcast
10:15 AM 68.4 °F 61.9 °F 80% 30.04 in 10.0 mi Calm Calm - N/A   Overcast
10:35 AM 69.1 °F 61.9 °F 78% 30.04 in 10.0 mi Calm Calm - N/A   Overcast
10:55 AM 69.8 °F 62.1 °F 76% 30.04 in 10.0 mi Calm Calm - N/A   Overcast
11:15 AM 70.0 °F 62.1 °F 76% 30.04 in 10.0 mi Calm Calm - N/A   Overcast
11:35 AM 70.2 °F 61.7 °F 74% 30.04 in 10.0 mi NW 3.5 mph - N/A   Overcast
11:55 AM 70.7 °F 61.5 °F 73% 30.03 in 10.0 mi NW 5.8 mph - N/A   Overcast
12:15 PM 70.9 °F 61.2 °F 71% 30.03 in 10.0 mi NNW 3.5 mph - N/A   Overcast
12:35 PM 71.1 °F 61.0 °F 70% 30.02 in 10.0 mi Calm Calm - N/A   Overcast
12:55 PM 70.9 °F 61.2 °F 71% 30.01 in 10.0 mi NW 5.8 mph - N/A   Overcast
1:15 PM 71.6 °F 61.3 °F 70% 30.01 in 10.0 mi NW 6.9 mph - N/A   Overcast
1:35 PM 71.6 °F 61.3 °F 70% 30.00 in 10.0 mi WNW 6.9 mph - N/A   Overcast
1:55 PM 71.6 °F 61.2 °F 70% 30.00 in 10.0 mi NW 5.8 mph - N/A   Overcast
2:15 PM 71.8 °F 61.3 °F 70% 29.99 in 10.0 mi NW 6.9 mph - N/A   Overcast
2:35 PM 71.6 °F 61.3 °F 70% 29.98 in 10.0 mi NW 5.8 mph - N/A   Overcast
2:55 PM 72.1 °F 61.5 °F 69% 29.98 in 10.0 mi NW 4.6 mph - N/A   Overcast
3:15 PM 72.0 °F 61.2 °F 69% 29.98 in 10.0 mi NW 5.8 mph - N/A   Overcast
3:35 PM 72.0 °F 60.8 °F 68% 29.98 in 10.0 mi WNW 4.6 mph - N/A   Overcast
3:55 PM 72.0 °F 60.8 °F 68% 29.97 in 10.0 mi West 3.5 mph - N/A   Overcast
4:15 PM 72.0 °F 61.0 °F 68% 29.98 in 10.0 mi NW 4.6 mph - N/A   Overcast
4:35 PM 72.5 °F 61.2 °F 67% 29.97 in 10.0 mi WNW 3.5 mph - N/A   Overcast
4:55 PM 72.5 °F 61.3 °F 68% 29.97 in 10.0 mi WNW 4.6 mph - N/A   Overcast
5:15 PM 71.2 °F 61.5 °F 71% 29.97 in 10.0 mi NW 3.5 mph - N/A   Overcast
5:35 PM 70.9 °F 61.3 °F 72% 29.97 in 10.0 mi WNW 3.5 mph - N/A   Overcast
5:55 PM 70.7 °F 61.7 °F 73% 29.97 in 10.0 mi NW 4.6 mph - N/A   Overcast
6:15 PM 69.8 °F 61.7 °F 75% 29.98 in 10.0 mi WNW 4.6 mph - N/A   Overcast
6:35 PM 68.9 °F 61.5 °F 77% 29.99 in 10.0 mi WNW 4.6 mph - N/A   Overcast
6:55 PM 68.5 °F 61.7 °F 79% 29.99 in 10.0 mi Calm Calm - N/A   Overcast
7:15 PM 68.0 °F 61.5 °F 80% 29.98 in 10.0 mi Calm Calm - N/A   Mostly Cloudy
7:35 PM 66.6 °F 61.7 °F 84% 29.99 in 10.0 mi Calm Calm - N/A   Scattered Clouds
7:55 PM 66.2 °F 61.7 °F 85% 29.99 in 10.0 mi Calm Calm - N/A   Scattered Clouds
8:15 PM 66.6 °F 62.1 °F 85% 30.00 in 10.0 mi WNW 3.5 mph - N/A   Mostly Cloudy
8:35 PM 66.6 °F 61.7 °F 84% 30.00 in 10.0 mi Calm Calm - N/A   Overcast
8:55 PM 66.2 °F 61.9 °F 86% 30.00 in 10.0 mi Calm Calm - N/A   Scattered Clouds
9:15 PM 64.4 °F 61.7 °F 91% 30.00 in 10.0 mi Calm Calm - N/A   Clear
9:35 PM 64.2 °F 61.5 °F 91% 30.00 in 10.0 mi Calm Calm - N/A   Clear
9:55 PM 63.0 °F 60.6 °F 92% 30.00 in 10.0 mi Calm Calm - N/A   Clear
10:15 PM 62.8 °F 61.3 °F 95% 29.99 in 10.0 mi Calm Calm - N/A   Clear
10:35 PM 61.2 °F 59.9 °F 96% 29.99 in 10.0 mi Calm Calm - N/A   Clear
10:55 PM 62.1 °F 60.6 °F 95% 29.99 in 10.0 mi Calm Calm - N/A   Clear
11:15 PM 61.9 °F 60.4 °F 95% 29.99 in 10.0 mi Calm Calm - N/A   Clear
11:35 PM 62.2 °F 61.0 °F 96% 29.99 in 10.0 mi Calm Calm - N/A   Clear
11:55 PM 61.3 °F 59.9 °F 95% 29.98 in 10.0 mi Calm Calm - N/A   Clear